Flag for Australia Weather past 2 weeks in Cairns, Queensland, Australia

Now
77 °F

Passing clouds.


Feels Like: 78 °F
Forecast: 76 / 85 °F
Wind: 12 mph from South

Location: Cairns Airport

Current Time: Apr 20, 2015 at 2:15:43 AM

Latest Report: Apr 20, 2015 at 1:30 AM


Visibility: N/A

Pressure: 29.95 "Hg

Humidity: 83%

Dew point: 72 °F

Location of CairnsLocation

Historic Weather in Cairns — Graph

°F

Cairns temperature yesterday

Maximum temperature yesterday: 88 °F (at 3:00 PM)
Minimum temperature yesterday: 75 °F (at 3:00 AM)
Average temperature yesterday: 80 °F

Past Weeks' High & Low Weather Summary

 TemperatureHumidityPressure
High90 °F (Apr 8, 11:00 AM)100% (Apr 7, 3:00 AM)30.09 "Hg (Apr 7, 3:00 AM)
Low72 °F (Apr 14, 2:00 AM)49% (Apr 8, 11:00 AM)29.71 "Hg (Apr 5, 5:00 PM)
Average79 °F77%29.92 "Hg
* Reported Apr 5 1:00 AM — Apr 20 1:00 AM, Cairns, Weather by CustomWeather, © 2015

Note: Actual official high and low records may vary slightly from our data, if they occured in-between our weather recording intervals... More about our weather records

Advertising

Cairns weather history for previous 24 hours

 ConditionsComfort  
Time TempWeatherWind HumidityBarometerVisibility
1:00 AM
Mon, Apr 20
77 °FPassing clouds.10 mph83%29.95 "HgN/A
12:30 AM77 °FPassing clouds.12 mph83%29.95 "HgN/A
12:00 AM77 °FPassing clouds.10 mph83%29.95 "HgN/A
11:30 PM
Sun, Apr 19
77 °FPassing clouds.10 mph83%29.98 "HgN/A
11:00 PM77 °FPassing clouds.9 mph83%29.98 "HgN/A
10:30 PM77 °FPassing clouds.9 mph83%29.98 "HgN/A
10:00 PM77 °FPassing clouds.9 mph83%29.98 "HgN/A
9:30 PM77 °FPassing clouds.8 mph83%29.95 "HgN/A
9:00 PM77 °FPassing clouds.9 mph83%29.95 "HgN/A
8:30 PM77 °FPassing clouds.7 mph83%29.95 "HgN/A
8:00 PM79 °FPassing clouds.9 mph74%29.92 "HgN/A
7:30 PM79 °FPassing clouds.9 mph79%29.92 "HgN/A
7:00 PM79 °FPassing clouds.13 mph79%29.92 "HgN/A
6:30 PM81 °FPassing clouds.13 mph74%29.89 "HgN/A
6:00 PM81 °FScattered clouds.13 mph74%29.89 "HgN/A
5:30 PM82 °FScattered clouds.15 mph70%29.89 "HgN/A
5:00 PM84 °FScattered clouds.17 mph62%29.89 "HgN/A
4:30 PM84 °FPartly sunny.17 mph55%29.89 "HgN/A
4:00 PM86 °FScattered clouds.17 mph52%29.89 "HgN/A
3:30 PM86 °FScattered clouds.18 mph52%29.89 "HgN/A
3:00 PM88 °FScattered clouds.17 mph52%29.89 "HgN/A
2:30 PM86 °FScattered clouds.17 mph55%29.92 "HgN/A
2:00 PM86 °FScattered clouds.20 mph55%29.92 "HgN/A
1:30 PM86 °FScattered clouds.17 mph59%29.92 "HgN/A
1:00 PM86 °FScattered clouds.16 mph62%29.95 "HgN/A
12:30 PM86 °FScattered clouds.17 mph62%29.95 "HgN/A
12:00 PM86 °FScattered clouds.17 mph66%29.98 "HgN/A
11:30 AM86 °FScattered clouds.16 mph66%29.98 "HgN/A
11:00 AM84 °FScattered clouds.18 mph66%30.01 "HgN/A
10:30 AM84 °FScattered clouds.17 mph66%30.01 "HgN/A
10:00 AM82 °FScattered showers. Scattered clouds.14 mph74%30.01 "HgN/A
9:00 AM82 °FScattered clouds.10 mph79%29.98 "HgN/A
8:30 AM81 °FScattered clouds.12 mph79%29.98 "HgN/A
8:00 AM79 °FScattered showers. Scattered clouds.10 mph84%29.95 "HgN/A
7:30 AM79 °FScattered showers. Scattered clouds.13 mph84%29.95 "HgN/A
7:00 AM77 °FScattered showers. Scattered clouds.14 mph89%29.95 "HgN/A
6:00 AM77 °FScattered showers. Passing clouds.10 mph89%29.92 "HgN/A
5:30 AM75 °FScattered showers. Passing clouds.12 mph94%29.92 "HgN/A
5:00 AM77 °FScattered showers. Passing clouds.13 mph89%29.89 "HgN/A
4:30 AM77 °FScattered showers. Passing clouds.14 mph89%29.89 "HgN/A
4:00 AM75 °FScattered showers. Partly cloudy.13 mph94%29.89 "HgN/A
3:30 AM77 °FScattered showers. Passing clouds.9 mph89%29.89 "HgN/A
3:00 AM75 °FSprinkles. Passing clouds.9 mph94%29.92 "Hg3 mi
2:30 AM77 °FScattered showers. Partly cloudy.9 mph89%29.92 "HgN/A
2:00 AM77 °FSprinkles. Partly cloudy.10 mph89%29.92 "Hg4 mi
Weather by CustomWeather, © 2015

See weather overviewHow to use our weather pages